"Pseudo-MPEC" for P11ebKr

Created 2021 Jun 17 5:07:16 UT using Find_Orb

Click here for an explanation of pseudo-MPECs

 
 Astrometry: 
     P11ebKr  C2021 02 09.29680 09 53 27.56 -09 31 54.9    ~47Ib       VNEOCPG96
     P11ebKr  C2021 02 09.30195 09 53 27.33 -09 31 51.6    ~47Ib 21.2 GVNEOCPG96
     P11ebKr  C2021 02 09.30709 09 53 27.05 -09 31 48.6    ~47Ib       VNEOCPG96
     P11ebKr  C2021 03 20f/q*aWNf[6:8A(yx^c1nQg,F212a6RKb]fse,UkvI]=+6;iy7PHCV00
     P11ebKr  C2021 03 20QZ/-FpDSu`j;Y/GhCk8:wNU@N6XX^U/rd=s5;L0!4KM#%KHqeEFuV00
     P11ebKr  C2021 03 20fN1x,ISpA3nSN@=)6Cq;KNuvwl;B86b@G`'Jnwl20`?8[\uKZlg+V00
     P11ebKr  C2021 03 20A[r.vn!3WA4qH_eE+Q/Ep!ZSv,gCMri-6w)*Rp;N_gvxRv]*_(a=V00
     P11ebKr  C2021 04 01-7ItZPFxAstrometry?-hp7MIahwFUMxb#[lcFJ[.a^(v4)N-6=#F51
     P11ebKr  C2021 04 01'jC2#CB+B*.#PquvuV^7ng3(Jai:XmvHs?5QbW\^;jkb7A]HNGayF51
     P11ebKr  C2021 04 01q#he[[a^/s`C*v'EfCj(51@]kny8Vxc3gOnjR1q%Kn/Gu.hsxp.dF51
     P11ebKr |C2021 04 026kU_jHoCe(0:v2_)x0.#$rKyZ9LYcZwTKR9pT.9@j#4@isIA)2E-807
     P11ebKr |C2021 04 02^pac3QH(ZM[MCi56/%mDF]=I$![I.ssI867C=_LQ2a%0P:`tn^@Q807
     P11ebKr |C2021 04 02Ui/redacted;V%3?x,hjw%hn:EQU$a+s;Em/]3:9VJo57click44807
     P11ebKr KC2021 04 02wWXt6FhU`h,olGUeb2L^yfQVjFk'5Y%F8y\^Bky0QnVxIv;$.A.-H21
     P11ebKr KC2021 04 02mxmc%\C*([^?s0rjbA:jv/H_PdG^1e\YN;;KD`^=ZM,b5MbPr9_@H21
     P11ebKr KC2021 04 02x6_yNJdd)l%ErYCXq`853Ew#L:-DSl?+\X*0(HNf:.12g.E_H]t5H21
     P11ebKr KC2021 04 02.11829 09 19 06.59 +01 12 21.6    ~4257       oNEOCP291
     P11ebKr KC2021 04 02.13563 09 19 06.17 +01 12 35.4    ~4257 22.1 RoNEOCP291
     P11ebKr KC2021 04 02.14713609 19 05.77 +01 12 43.9    ~4247 21.96GVNEOCPV06
     P11ebKr KC2021 04 02.15268009 19 05.66 +01 12 47.9    ~4247 23.02GVNEOCPV06
     P11ebKr KC2021 04 02.15822709 19 05.50 +01 12 51.5    ~4247 21.67GVNEOCPV06
     P11ebKr KC2021 04 03.13956509 18 41.06 +01 24 43.7    ~433q 21.76GVNEOCPV06
     P11ebKr KC2021 04 03.14590209 18 40.92 +01 24 49.0    ~433q 22.44GVNEOCPV06
     P11ebKr KC2021 04 03.15224209 18 40.73 +01 24 53.2    ~433q 22.03GVNEOCPV06
     P11ebKr KC2021 04 04.14096809 18 16.85 +01 36 46.8    ~4447 21.65GVNEOCPV06
     P11ebKr KC2021 04 04.14730209 18 16.67 +01 36 51.6    ~4447 22.21GVNEOCPV06
     P11ebKr KC2021 04 04.15363909 18 16.52 +01 36 56.1    ~4447 21.87GVNEOCPV06
     P11ebKr 1C2021 04 04\L8/fE-slL$(^.mgVhereASJO7q\VNs*c00VsvUI!-M*fork5Q2EQ62
     P11ebKr 1C2021 04 04rep]ascCO7p3UD1y@@ZDBAqLexplanationfa#y,OVQ=$?:SW1gfQ62
     P11ebKr ^C2021 04 06.27858209 17 27.804+02 02 13.31   ~46FM 22.08GVNEOCP568
     P11ebKr ^C2021 04 06.27979209 17 27.775+02 02 14.18   ~46FM 22.14GVNEOCP568
     P11ebKr ^C2021 04 06.28100509 17 27.743+02 02 15.09   ~46FM 22.65GVNEOCP568
     P11ebKr KC2021 04 11.17602 09 15 49.31 +02 58 58.2    ~4B5b 21.6 RoNEOCP291
     P11ebKr KC2021 04 11.19102 09 15 49.01 +02 59 08.3    ~4B5b 21.9 RoNEOCP291
     P11ebKr KC2021 04 11.20601 09 15 48.73 +02 59 18.5    ~4B5b 21.6 RoNEOCP291
     P11ebKr KC2021 05 07.95469909 12 29.45 +07 26 01.2    ~581b 21.6 GXNEOCPY00
     P11ebKr KC2021 05 07.98355909 12 29.54 +07 26 16.1    ~581b 21.1 GXNEOCPY00
     P11ebKr KC2021 05 08.01261009 12 29.57 +07 26 31.7    ~581b 21.6 GXNEOCPY00
     P11ebKr KC2021 05 12.18123 09 12 47.47 +08 01 05.6    ~5C5q 21.7 RoNEOCP291
     P11ebKr KC2021 05 12.19785 09 12 47.57 +08 01 13.7    ~5C5q 22.6 RoNEOCP291
     P11ebKr KC2021 05 12.21447 09 12 47.69 +08 01 22.2    ~5C5q       oNEOCP291
     P11ebKr KC2021 05 13.16638 09 12 53.40 +08 08 59.9    ~5D5M       oNEOCP291
     P11ebKr KC2021 05 13.17935 09 12 53.56 +08 09 05.9    ~5D5M       oNEOCP291
     P11ebKr KC2021 05 13.19236 09 12 53.62 +08 09 12.2    ~5D5M 21.8 RoNEOCP291

Station data:
(291) LPL/Spacewatch II  (N31.961669 W111.599905)  US/Arizona.  Observers J.
   V. Scotti, R. S. McMillan. 1.8-m f/2.7 reflector + CCD.
(568) Mauna Kea  (N19.826116 W155.472200)  US/Hawaii.
(807) Cerro Tololo Observatory, La Serena  (S30.169136 W70.805900)  Chile.
(F51) Pan-STARRS 1, Haleakala  (N20.707235 W156.255910)  US/Hawaii.
   Observers N. Primak, A. Schultz, S. Watters, J. Thiel, T. Goggia. Measurer
   PS1 Science Consortium. 1.8-m Ritchey-Chrétien + CCD.
(G96) Mt. Lemmon Survey  (N32.442754 W110.788720)  US/Arizona.  Observers T.
   A. Pruyne, B. M. Africano, E. J. Christensen, G. A. Farneth, D. C. Fuls,
   A. R. Gibbs, A. D. Grauer, H. Gröller, J. A. Johnson, R. A. Kowalski, S.
   M. Larson, G. J. Leonard, D. Rankin, R. L. Seaman, F. C. Shelly. 1.5-m
   reflector + 10K CCD.
(H21) Astronomical Research Observatory, Westfield  (N39.483057 W87.968270)
   US/Illinois. 0.76-m f/3.0 astrograph + CCD.
(Q62) iTelescope Observatory, Siding Spring  (S31.273289 E149.064420)
   Australia/NSW. 0.50-m f/6.8 astrograph + CCD + focal reducer, 0.70-m f/6.6
   astrograph + CCD.
(V00) Kitt Peak-Bok  (N31.963127 W111.600190)  US/Arizona.
(V06) Catalina Sky Survey-Kuiper  (N32.416847 W110.732550)  US/Arizona.
   Observers T. A. Pruyne, B. M. Africano, E. J. Christensen, G. A. Farneth,
   D. C. Fuls, A. R. Gibbs, A. D. Grauer, H. Gröller, J. A. Johnson, R. A.
   Kowalski, S. M. Larson, G. J. Leonard, D. Rankin, R. L. Seaman, F. C.
   Shelly. 1.55-m reflector + CCD.
(Y00) SONEAR Observatory, Oliveira  (S20.715082 W44.784960)  Brazil.
   Observers C. Jacques, E. Pimentel, J. Barros. Measurer C. Jacques. 0.28-m
   f/2.2 astrograph + CCD.

Orbital elements:  P11ebKr
   Perihelion 2021 Oct 18.958125 +/- 0.0815765 TT = 22:59:42 (JD 2459506.458125)
Epoch 2021 May 13.0 TT = JDT 2459347.5   Ju: 0.1473           AutoNEOCP
q   5.18048412 +/- 0.000281042
H   14.6  G 0.15                    Peri.   10.69156 +/- 0.0102065
                                    Node   147.41967 +/- 0.0005825
e   1.0011304 +/- 0.000152602       Incl.  102.87945 +/- 0.0017640
From 44 observations 2021 Feb. 9-May 13; mean residual 0".37
Residuals in arcseconds: 
210209 G96  .12+  .14+    210402 H21  .12+  .36+    210406 568  .27-  .12+    
210209 G96  .24+  .11+    210402 291  .26+  1.1-    210406 568  .34-  .17+    
210209 G96  .38-  .22-    210402 291  .72+  .07+    210411 291  .28+  .28-    
210320 V00  .25-  .17+    210402 V06  .77-  .20+    210411 291  .00   .40-    
210320 V00  .05-  .40-    210402 V06  .26-  .17+    210411 291  .01+  .42-    
210320 V00  .14+  .07-    210402 V06  .50-  .28-    210507 Y00  .05-  .17-    
210320 V00  .18+  .36+    210403 V06  .04-  .69-    210507 Y00  .35+  .02-    
210401 F51  .03-  .13+    210403 V06  .25+  .03+    210508 Y00  .20-  .74+    
210401 F51  .10-  .05-    210403 V06  .20-  .36-    210512 291  .01-  .48-    
210401 F51  .06-  .02-    210404 V06  .07-  .12-    210512 291  .15+  .42-    
210402 807  .34+  .24+    210404 V06  .45-  .13+    210512 291  .59+  .04+    
210402 807  .29+  .06-    210404 V06  .38-  .07+    210513 291  1.2-  .79-    
210402 807  .04-  .02+    210404 Q62  .11+  .37+    210513 291  .04+  .99-    
210402 H21  .01-  .31+    210404 Q62  .21+  .05+    210513 291  .24-  .90-    
210402 H21  .27+  .27+    210406 568  .25-  .10+    

Ephemerides (geocentric):
Date (UTC) HH   RA              Dec         delta   r     elong  mag " sig PA
---- -- -- --  -------------   -----------  ------ ------ -----  --- ---- ---
2021 06 17 05  09 22 44.883   +11 50 19.51  5.8054 5.2641  53.5 22.7 .497  87
2021 06 17 06  09 22 45.958   +11 50 31.64  5.8059 5.2641  53.4 22.7 .498  87
2021 06 17 07  09 22 47.034   +11 50 43.76  5.8065 5.2640  53.4 22.7 .499  87
2021 06 17 08  09 22 48.110   +11 50 55.87  5.8070 5.2640  53.3 22.7 .499  87
2021 06 17 09  09 22 49.187   +11 51 07.98  5.8075 5.2639  53.3 22.7 .500  87
2021 06 17 10  09 22 50.265   +11 51 20.08  5.8081 5.2639  53.3 22.7 .501  87
2021 06 17 11  09 22 51.343   +11 51 32.17  5.8086 5.2638  53.2 22.7 .501  87
2021 06 17 12  09 22 52.423   +11 51 44.25  5.8091 5.2638  53.2 22.7 .502  87
2021 06 17 13  09 22 53.503   +11 51 56.33  5.8096 5.2637  53.2 22.7 .503  87
2021 06 17 14  09 22 54.583   +11 52 08.40  5.8102 5.2636  53.1 22.7 .503  87
2021 06 17 15  09 22 55.665   +11 52 20.46  5.8107 5.2636  53.1 22.7 .504  87
2021 06 17 16  09 22 56.747   +11 52 32.52  5.8112 5.2635  53.1 22.7 .505  87
2021 06 17 17  09 22 57.830   +11 52 44.57  5.8117 5.2635  53.0 22.7 .506  87
2021 06 17 18  09 22 58.913   +11 52 56.61  5.8123 5.2634  53.0 22.7 .506  87
2021 06 17 19  09 22 59.997   +11 53 08.64  5.8128 5.2634  52.9 22.7 .507  87
2021 06 17 20  09 23 01.082   +11 53 20.67  5.8133 5.2633  52.9 22.7 .508  87
2021 06 17 21  09 23 02.168   +11 53 32.68  5.8138 5.2633  52.9 22.7 .508  87
2021 06 17 22  09 23 03.254   +11 53 44.69  5.8144 5.2632  52.8 22.7 .509  87
2021 06 17 23  09 23 04.342   +11 53 56.70  5.8149 5.2631  52.8 22.7 .510  87
2021 06 18 00  09 23 05.429   +11 54 08.70  5.8154 5.2631  52.8 22.7 .510  87
2021 06 18 01  09 23 06.518   +11 54 20.68  5.8159 5.2630  52.7 22.7 .511  87
2021 06 18 02  09 23 07.607   +11 54 32.67  5.8165 5.2630  52.7 22.7 .512  87
2021 06 18 03  09 23 08.697   +11 54 44.64  5.8170 5.2629  52.6 22.7 .512  87
2021 06 18 04  09 23 09.788   +11 54 56.61  5.8175 5.2629  52.6 22.7 .513  87
2021 06 18 05  09 23 10.879   +11 55 08.57  5.8180 5.2628  52.6 22.7 .514  87
2021 06 18 06  09 23 11.971   +11 55 20.52  5.8186 5.2628  52.5 22.7 .514  87
2021 06 18 07  09 23 13.064   +11 55 32.47  5.8191 5.2627  52.5 22.7 .515  87
2021 06 18 08  09 23 14.158   +11 55 44.41  5.8196 5.2626  52.5 22.7 .516  87
2021 06 18 09  09 23 15.252   +11 55 56.34  5.8201 5.2626  52.4 22.7 .517  87
2021 06 18 10  09 23 16.347   +11 56 08.26  5.8207 5.2625  52.4 22.7 .517  88
2021 06 18 11  09 23 17.443   +11 56 20.18  5.8212 5.2625  52.4 22.7 .518  88
2021 06 18 12  09 23 18.539   +11 56 32.09  5.8217 5.2624  52.3 22.7 .519  88
2021 06 18 13  09 23 19.636   +11 56 43.99  5.8222 5.2624  52.3 22.7 .519  88
2021 06 18 14  09 23 20.734   +11 56 55.88  5.8227 5.2623  52.2 22.7 .520  88
2021 06 18 15  09 23 21.833   +11 57 07.77  5.8233 5.2623  52.2 22.7 .521  88
2021 06 18 16  09 23 22.932   +11 57 19.65  5.8238 5.2622  52.2 22.7 .521  88
2021 06 18 17  09 23 24.032   +11 57 31.53  5.8243 5.2621  52.1 22.7 .522  88
2021 06 18 18  09 23 25.133   +11 57 43.39  5.8248 5.2621  52.1 22.7 .523  88
2021 06 18 19  09 23 26.234   +11 57 55.25  5.8253 5.2620  52.1 22.7 .523  88
2021 06 18 20  09 23 27.336   +11 58 07.10  5.8259 5.2620  52.0 22.7 .524  88
2021 06 18 21  09 23 28.439   +11 58 18.95  5.8264 5.2619  52.0 22.7 .525  88
2021 06 18 22  09 23 29.542   +11 58 30.78  5.8269 5.2619  52.0 22.7 .526  88
2021 06 18 23  09 23 30.647   +11 58 42.61  5.8274 5.2618  51.9 22.7 .526  88
2021 06 19 00  09 23 31.751   +11 58 54.44  5.8279 5.2618  51.9 22.7 .527  88
2021 06 19 01  09 23 32.857   +11 59 06.25  5.8285 5.2617  51.8 22.7 .528  88
2021 06 19 02  09 23 33.963   +11 59 18.06  5.8290 5.2617  51.8 22.7 .528  88
2021 06 19 03  09 23 35.070   +11 59 29.86  5.8295 5.2616  51.8 22.7 .529  88
2021 06 19 04  09 23 36.178   +11 59 41.66  5.8300 5.2615  51.7 22.7 .530  88